Tracking 31027 objects as of 19-Jul-2025
HD Live streaming from Space Station
objects crossing your sky now

THOR ABLESTAR DEB

Track THOR ABLESTAR DEB now!
10-day predictions


NORAD ID: 210
Int'l Code: 1961-015BE
Perigee: 907.9 km
Apogee: 973.4 km
Inclination: 66.5 °
Period: 103.7 minutes
Semi major axis: 7311 km
RCS: 0.1684 m2 (medium)
Launch date: June 29, 1961
Source: United States (US)
Launch site: AIR FORCE EASTERN TEST RANGE (AFETR)

Note: This is SATELLITE DEBRIS
Your satellite tracking list
STARLINK-4010
Track 1 satellite(s)




NASA's NSSDC Master Catalog

Two Line Element Set (TLE):
1 00210U 61015BE  25199.43509340  .00000333  00000-0  33884-3 0  9998
2 00210  66.4573 109.0533 0044839 175.4347 184.7146 13.88604804219056
Source of the keplerian elements: AFSPC